Wind_Speed
42 42 43 43 44 45 45 45 45 45 45 46 47 48 48 49 50 51 52 53 54 54 55 55 55 54 54 52 51 49 48 47 46 44 43 41 40 38 37 36 36 35 34
43 43 44 44 45 46 46 46 46 46 46 47 48 48 49 50 51 52 52 53 54 56 56 57 57 57 57 56 54 53 51 50 50 48 46 44 43 42 40 39 38 37 35
43 43 44 46 47 46 46 46 47 47 48 49 50 50 50 52 53 53 54 54 54 56 57 57 58 59 59 58 57 56 55 54 52 51 49 48 46 44 42 41 39 38 37
44 44 45 47 47 47 47 47 48 49 50 50 50 51 51 52 53 54 54 55 55 55 56 58 59 60 60 60 59 57 56 56 55 54 52 51 50 47 45 44 42 40 39
45 45 46 47 47 47 48 48 49 49 49 49 49 50 50 50 51 51 53 54 54 54 55 56 58 60 61 62 61 59 57 57 56 55 55 53 52 49 48 46 45 43 41
45 46 46 47 47 47 48 48 47 47 47 47 47 47 47 47 48 48 49 51 52 52 53 54 56 58 60 61 62 62 60 57 56 56 55 54 53 51 50 48 47 45 43
45 46 46 47 46 47 47 46 46 45 44 43 43 43 43 44 44 44 45 45 46 48 49 51 52 53 57 59 61 61 61 59 58 55 55 55 54 53 52 50 48 45 44
45 46 47 46 46 46 45 44 43 42 41 40 40 39 38 38 39 40 41 42 42 43 45 46 49 50 51 53 56 58 58 59 58 56 55 54 54 53 52 50 49 47 45
45 46 46 46 46 45 43 42 41 40 39 38 36 35 34 33 34 35 36 37 37 39 41 43 44 46 47 48 50 52 54 55 57 56 54 53 52 52 51 50 49 47 46
45 46 46 45 45 43 42 40 38 37 35 33 32 30 29 28 27 28 30 32 32 34 37 39 40 41 43 44 44 46 47 49 51 52 52 51 51 51 50 49 47 46 46
45 45 45 44 43 41 40 38 36 34 32 30 28 25 23 22 21 23 25 27 29 30 32 34 35 37 39 40 41 42 43 45 47 49 50 50 51 52 50 48 46 45 45
45 44 43 43 42 40 38 36 33 32 29 27 24 21 19 18 18 19 20 22 24 26 28 31 32 33 35 36 37 38 40 42 44 46 47 48 49 51 51 49 47 46 44
44 43 42 41 41 39 36 33 31 29 27 24 22 18 15 15 16 16 16 19 21 23 25 27 29 30 31 33 35 36 37 40 41 42 44 45 46 47 49 49 48 47 46
43 42 41 40 40 37 34 31 30 28 25 22 19 16 13 12 11 11 12 14 17 19 21 23 25 26 27 29 32 33 34 36 38 40 41 42 43 44 46 47 47 46 45
42 41 40 39 38 35 32 31 29 27 24 20 16 13 11 9 8 8 8 10 13 16 18 20 22 23 24 26 28 31 33 34 35 36 38 39 41 42 44 46 45 45 45
41 41 39 38 36 33 31 29 27 25 23 19 15 12 10 8 7 6 5 7 9 12 15 17 19 20 22 23 25 28 31 32 33 34 35 37 39 41 43 44 44 44 44
41 40 39 37 34 32 30 28 26 24 22 19 15 12 9 7 5 4 4 5 7 9 12 15 16 18 19 21 23 25 28 30 31 33 34 35 37 38 40 43 44 43 43
40 40 38 35 33 31 29 27 25 23 21 19 16 13 10 6 3 2 3 5 6 8 10 12 13 15 17 18 20 23 25 27 29 30 32 34 36 36 38 40 42 42 43
39 38 37 34 32 29 28 26 24 21 20 19 17 14 11 8 4 1 2 4 5 7 9 10 12 13 15 16 18 20 22 23 26 28 30 31 33 34 37 39 39 39 41
37 37 36 33 31 29 26 24 23 21 20 19 17 15 13 10 7 3 2 3 4 6 8 10 11 12 14 15 16 18 20 23 25 27 29 30 31 32 34 37 38 38 40
36 35 33 32 30 28 26 24 22 21 20 19 17 16 14 12 9 6 3 1 3 4 6 8 9 10 12 14 15 17 20 23 24 25 26 28 29 30 32 34 36 38 38
34 33 32 30 28 27 25 23 21 20 18 18 17 15 14 13 11 8 5 3 1 2 3 5 6 7 9 11 13 16 20 22 23 24 25 27 27 28 31 33 34 35 35
32 31 30 29 27 25 24 23 21 20 18 18 17 16 15 14 12 11 8 6 5 4 3 3 5 6 8 11 13 15 17 18 21 23 25 27 28 29 30 31 32 33 32
30 29 29 28 26 23 22 21 20 19 19 18 17 17 16 15 13 11 10 9 8 7 6 6 6 7 10 13 15 16 17 18 20 23 25 26 27 28 28 29 30 29 29
28 27 27 26 24 22 21 20 19 18 18 18 17 17 17 16 15 14 12 11 10 9 8 8 10 12 13 15 16 17 18 19 21 23 25 27 28 28 28 29 29 28 28
25 25 24 24 23 22 20 18 17 16 16 16 16 16 16 16 16 15 14 13 11 10 11 11 14 15 16 16 17 18 18 19 20 23 25 26 27 26 26 27 26 26 26
Wind_Direction
308 307 305 303 301 299 297 294 292 290 287 284 281 278 274 271 268 265 262 259 256 254 252 249 246 245 244 243 242 241 241 240 241 240 240 239 239 238 237 237 237 238 239
310 308 306 304 302 300 297 295 293 290 288 285 282 278 276 272 269 266 263 260 257 254 251 249 247 244 243 242 242 243 242 240 240 240 239 239 240 239 238 238 237 236 238
312 310 308 306 304 302 299 296 293 291 289 286 282 279 276 273 269 266 263 260 257 254 252 249 247 244 242 241 241 242 241 241 241 240 239 239 239 238 239 238 238 237 237
313 311 309 308 306 303 301 298 296 293 290 287 283 280 277 274 270 266 262 258 255 253 251 248 246 243 242 241 240 240 240 240 240 239 239 239 239 239 239 239 238 238 238
314 313 311 310 308 306 304 301 298 296 293 289 285 281 277 274 270 266 262 257 254 251 249 247 244 242 241 240 239 238 238 238 239 239 238 238 238 238 239 239 239 239 238
316 315 314 313 310 308 306 304 301 298 295 292 287 284 279 273 269 266 261 257 253 250 247 245 243 241 239 239 238 238 237 237 237 236 237 236 236 238 239 238 239 239 238
319 318 317 316 314 311 309 307 305 302 299 295 291 286 281 275 269 264 259 256 252 248 246 243 242 241 239 238 238 237 237 237 237 237 237 237 236 237 237 237 237 237 237
323 322 321 320 318 316 313 311 308 305 302 298 294 289 283 276 270 263 257 254 250 246 243 241 240 240 239 238 236 236 236 237 237 236 236 234 233 234 235 236 235 236 236
325 325 324 323 322 320 317 315 312 309 306 302 297 292 286 279 271 263 257 253 249 244 241 239 238 237 237 236 235 234 234 234 235 235 234 233 231 231 232 233 233 234 235
328 328 328 327 326 324 322 320 317 313 310 306 302 296 290 283 273 263 256 250 245 242 239 237 235 234 234 233 232 231 230 230 231 231 232 232 229 228 229 231 231 232 233
330 331 331 330 329 328 326 324 321 318 315 310 305 300 292 283 274 265 256 247 242 240 236 234 233 232 232 230 229 229 228 228 229 230 230 230 229 228 229 230 231 230 230
334 334 334 334 334 332 330 329 326 323 320 316 310 303 293 283 275 267 257 245 238 236 234 232 231 229 228 228 227 226 227 226 227 228 228 229 228 228 228 230 230 228 227
337 337 337 337 337 336 335 333 331 329 325 321 316 308 297 288 279 268 259 244 236 233 231 229 227 226 225 225 223 224 224 224 224 225 226 225 226 226 226 227 228 227 227
339 339 340 340 340 340 339 338 337 335 331 327 321 314 305 298 289 274 259 242 234 228 226 223 222 223 223 222 221 221 222 223 223 223 223 223 223 223 223 222 222 222 224
342 342 342 342 343 344 344 343 343 341 340 335 330 321 312 306 296 278 257 237 229 225 221 219 219 221 222 221 221 221 221 221 221 221 220 220 219 221 221 220 220 220 221
345 345 345 345 346 347 348 348 349 350 349 346 341 332 323 314 303 286 256 230 224 218 213 211 215 218 219 219 219 220 219 219 219 219 218 218 217 217 216 216 216 216 217
347 348 349 349 350 351 352 353 354 355 357 358 355 348 340 329 309 276 239 222 217 212 209 209 213 214 214 214 216 218 218 219 220 218 218 218 215 215 214 213 213 214 215
349 351 352 353 354 355 356 357 358 360 2 4 4 1 356 351 335 284 231 212 208 203 202 205 208 209 208 210 213 215 216 217 217 216 215 215 214 214 212 212 213 214 214
351 353 355 357 358 359 0 2 5 8 10 10 10 11 11 8 4 350 183 185 189 192 197 203 206 208 210 212 214 215 217 217 213 211 208 209 210 211 211 210 210 210 210
353 355 357 360 2 3 5 7 9 11 13 14 16 17 18 21 26 47 118 164 188 197 205 209 214 218 219 218 218 216 212 207 203 202 203 204 205 207 208 207 205 205 205
354 356 359 2 4 6 8 10 12 15 16 18 21 23 26 32 37 45 52 120 180 199 211 215 216 217 216 215 215 211 203 196 194 197 200 200 201 201 201 200 199 199 199
356 358 360 3 6 9 12 14 16 18 22 23 26 28 31 37 39 44 49 63 98 183 212 204 196 199 202 204 203 198 194 192 193 193 193 193 194 196 196 195 194 194 195
356 358 1 4 7 11 15 19 22 24 27 30 34 37 38 41 44 48 54 60 70 82 102 144 174 183 184 180 177 176 177 181 183 185 186 187 187 188 190 191 190 191 193
355 358 1 5 9 13 18 22 25 29 32 35 38 42 43 44 46 50 58 58 62 74 89 102 120 137 148 154 157 156 157 160 165 169 174 176 178 178 181 184 185 187 188
354 357 1 5 9 12 16 21 26 30 34 38 40 44 47 50 54 54 56 60 66 71 83 96 109 122 134 142 146 147 148 150 152 157 162 165 168 171 175 177 179 182 187
352 356 0 4 8 11 15 20 26 30 35 40 44 49 53 55 56 55 59 66 71 78 88 97 110 118 124 131 136 139 143 147 150 154 160 164 168 170 173 177 180 183 187
Height
5735 5729 5725 5720 5715 5710 5706 5702 5698 5695 5693 5691 5689 5688 5689 5689 5690 5691 5693 5696 5699 5703 5707 5712 5717 5722 5727 5732 5737 5742 5748 5753 5758 5765 5769 5775 5780 5785 5791 5795 5800 5804 5807
5724 5718 5713 5708 5702 5697 5692 5688 5684 5681 5678 5675 5673 5672 5671 5671 5672 5673 5675 5678 5681 5685 5689 5695 5700 5706 5711 5717 5723 5729 5734 5740 5746 5752 5758 5764 5770 5775 5781 5786 5790 5795 5799
5714 5708 5701 5695 5689 5683 5678 5673 5669 5665 5661 5658 5656 5654 5653 5653 5653 5654 5656 5659 5662 5666 5671 5676 5682 5688 5694 5701 5707 5713 5720 5726 5732 5739 5746 5752 5758 5764 5770 5775 5780 5786 5791
5703 5696 5690 5683 5676 5670 5664 5658 5653 5648 5644 5641 5638 5636 5635 5634 5634 5635 5636 5639 5643 5647 5652 5657 5663 5669 5677 5683 5690 5697 5704 5711 5719 5726 5733 5740 5747 5753 5759 5765 5771 5777 5782
5692 5685 5678 5670 5663 5656 5649 5643 5637 5632 5627 5623 5619 5617 5615 5614 5614 5615 5617 5620 5624 5628 5633 5638 5644 5651 5658 5666 5673 5681 5688 5696 5704 5711 5719 5727 5734 5741 5747 5754 5760 5766 5772
5682 5674 5666 5658 5650 5642 5635 5628 5622 5616 5610 5605 5601 5598 5596 5595 5595 5596 5598 5601 5605 5610 5615 5620 5625 5632 5640 5648 5656 5665 5673 5681 5689 5696 5705 5713 5721 5728 5735 5741 5748 5755 5762
5671 5663 5654 5646 5638 5629 5622 5614 5607 5600 5594 5589 5585 5581 5579 5578 5577 5579 5580 5583 5587 5592 5598 5603 5609 5616 5623 5632 5640 5649 5658 5666 5674 5682 5690 5699 5707 5716 5723 5730 5737 5744 5751
5661 5652 5643 5634 5626 5617 5609 5601 5593 5586 5580 5575 5570 5566 5564 5562 5562 5562 5564 5567 5571 5577 5582 5588 5595 5601 5609 5617 5625 5633 5642 5651 5660 5669 5678 5686 5693 5701 5709 5717 5725 5732 5739
5652 5643 5633 5624 5615 5606 5597 5589 5581 5574 5568 5562 5557 5553 5550 5549 5548 5549 5551 5554 5558 5563 5569 5575 5581 5588 5595 5603 5611 5620 5628 5636 5645 5654 5663 5671 5679 5688 5696 5704 5713 5721 5728
5644 5634 5624 5614 5605 5595 5587 5578 5570 5563 5557 5551 5546 5542 5539 5538 5537 5538 5540 5543 5547 5552 5558 5564 5570 5576 5583 5590 5599 5607 5615 5623 5632 5641 5650 5658 5666 5675 5684 5693 5701 5710 5718
5636 5626 5616 5606 5596 5587 5578 5569 5561 5554 5548 5542 5538 5534 5531 5530 5529 5529 5531 5534 5538 5542 5548 5554 5560 5566 5573 5580 5588 5596 5603 5611 5619 5628 5637 5646 5654 5663 5672 5681 5690 5699 5707
5629 5619 5609 5599 5589 5580 5571 5562 5554 5547 5541 5535 5531 5527 5525 5523 5523 5523 5524 5527 5531 5535 5540 5545 5551 5557 5564 5571 5578 5586 5593 5601 5609 5617 5626 5634 5643 5652 5661 5670 5679 5688 5696
5623 5613 5603 5593 5583 5574 5564 5556 5549 5542 5536 5530 5526 5522 5520 5519 5518 5518 5519 5521 5525 5529 5533 5538 5544 5550 5556 5563 5570 5577 5584 5591 5599 5607 5616 5624 5632 5641 5650 5659 5668 5677 5686
5618 5608 5598 5588 5579 5569 5560 5552 5544 5538 5532 5526 5522 5519 5517 5515 5515 5515 5515 5517 5520 5524 5528 5533 5538 5544 5550 5556 5562 5569 5576 5583 5590 5598 5606 5614 5622 5631 5640 5649 5658 5667 5676
5613 5603 5594 5584 5574 5565 5557 5549 5541 5535 5528 5524 5520 5517 5515 5514 5513 5513 5513 5515 5517 5520 5524 5529 5534 5539 5545 5550 5556 5562 5569 5576 5583 5590 5597 5604 5613 5621 5630 5639 5649 5658 5667
5610 5600 5590 5581 5571 5563 5555 5547 5540 5533 5528 5522 5519 5516 5514 5513 5512 5512 5512 5514 5516 5518 5522 5526 5531 5535 5540 5545 5550 5556 5562 5568 5575 5582 5589 5596 5604 5612 5621 5630 5640 5649 5659
5607 5597 5588 5578 5569 5561 5553 5546 5540 5534 5528 5523 5519 5516 5514 5513 5512 5512 5513 5514 5515 5518 5521 5524 5528 5532 5536 5540 5545 5550 5556 5562 5568 5575 5582 5589 5597 5605 5613 5622 5631 5641 5650
5605 5595 5586 5577 5568 5561 5553 5546 5540 5534 5529 5525 5521 5517 5515 5513 5512 5512 5513 5514 5516 5517 5520 5523 5526 5530 5533 5537 5541 5546 5551 5556 5562 5568 5575 5582 5590 5598 5606 5614 5623 5633 5642
5604 5595 5586 5577 5569 5561 5554 5548 5542 5537 5532 5527 5523 5520 5517 5515 5514 5513 5514 5515 5517 5518 5520 5523 5526 5529 5532 5535 5538 5542 5546 5551 5556 5562 5569 5576 5584 5591 5600 5608 5617 5626 5635
5603 5595 5586 5578 5570 5563 5556 5550 5544 5539 5534 5530 5527 5523 5520 5517 5515 5515 5516 5516 5518 5519 5521 5523 5525 5527 5529 5532 5535 5538 5542 5547 5552 5558 5565 5572 5579 5586 5594 5602 5611 5620 5629
5603 5595 5587 5580 5572 5565 5559 5553 5547 5542 5538 5534 5530 5526 5523 5520 5519 5518 5518 5518 5519 5520 5521 5522 5524 5525 5527 5530 5532 5535 5539 5544 5550 5556 5562 5568 5575 5582 5590 5598 5607 5616 5624
5604 5597 5589 5582 5575 5568 5562 5556 5551 5546 5542 5537 5534 5530 5527 5525 5523 5521 5520 5520 5520 5520 5521 5522 5523 5524 5526 5528 5530 5533 5537 5543 5549 5554 5560 5567 5573 5581 5588 5596 5604 5612 5621
5605 5598 5591 5584 5577 5571 5565 5560 5554 5550 5545 5542 5538 5535 5531 5529 5527 5525 5523 5522 5522 5522 5522 5523 5524 5525 5526 5528 5531 5534 5538 5543 5548 5553 5559 5566 5573 5580 5587 5594 5603 5611 5618
5606 5600 5593 5586 5580 5574 5569 5564 5559 5554 5550 5546 5543 5540 5537 5534 5532 5529 5527 5526 5525 5525 5525 5525 5526 5526 5528 5531 5534 5537 5541 5545 5549 5554 5560 5567 5573 5580 5587 5594 5602 5610 5617
5607 5601 5595 5589 5583 5578 5573 5568 5563 5559 5556 5552 5549 5545 5542 5540 5537 5535 5532 5531 5530 5529 5529 5529 5530 5531 5532 5535 5538 5541 5545 5549 5553 5558 5564 5570 5576 5583 5589 5597 5604 5610 5617
5607 5602 5597 5591 5586 5581 5576 5572 5568 5564 5561 5557 5554 5551 5548 5546 5543 5541 5538 5536 5535 5534 5534 5534 5535 5536 5538 5540 5543 5546 5550 5554 5558 5563 5568 5574 5580 5586 5592 5598 5604 5611 5617